TimePDT,TemperatureF,Dew PointF,Humidity,Sea Level PressureIn,VisibilityMPH,Wind Direction,Wind SpeedMPH,Gust SpeedMPH,PrecipitationIn,Events,Conditions,WindDirDegrees,DateUTC
12:15 AM,59.0,55.4,88,30.06,10.0,WSW,5.8,-,N/A,,Unknown,240,2013-08-07 07:15:00
12:35 AM,59.0,55.4,88,30.07,10.0,WSW,4.6,-,N/A,,Unknown,250,2013-08-07 07:35:00
12:55 AM,59.0,55.4,88,30.07,10.0,WSW,6.9,-,N/A,,Unknown,250,2013-08-07 07:55:00
1:15 AM,57.2,55.4,94,30.07,9.0,SW,3.5,-,N/A,,Unknown,230,2013-08-07 08:15:00
1:35 AM,57.2,57.2,100,30.07,7.0,Calm,Calm,-,N/A,,Unknown,0,2013-08-07 08:35:00
1:55 AM,57.2,55.4,94,30.07,10.0,West,5.8,-,N/A,,Unknown,270,2013-08-07 08:55:00
2:15 AM,57.2,55.4,94,30.07,10.0,NNW,4.6,-,N/A,,Unknown,340,2013-08-07 09:15:00
2:35 AM,57.2,55.4,94,30.06,9.0,NNW,3.5,-,N/A,,Unknown,330,2013-08-07 09:35:00
2:55 AM,57.2,57.2,100,30.07,10.0,NW,3.5,-,N/A,,Unknown,320,2013-08-07 09:55:00
3:15 AM,55.4,55.4,100,30.07,10.0,North,3.5,-,N/A,,Unknown,350,2013-08-07 10:15:00
3:35 AM,55.4,55.4,100,30.07,9.0,NW,3.5,-,N/A,,Unknown,320,2013-08-07 10:35:00
3:55 AM,55.4,55.4,100,30.07,10.0,NNW,3.5,-,N/A,,Unknown,340,2013-08-07 10:55:00
4:15 AM,55.4,55.4,100,30.06,10.0,NNW,5.8,-,N/A,,Overcast,330,2013-08-07 11:15:00
4:35 AM,55.4,55.4,100,30.06,4.0,North,5.8,-,N/A,,Mist,350,2013-08-07 11:35:00
4:55 AM,55.4,55.4,100,30.06,5.0,North,5.8,-,N/A,,Mist,350,2013-08-07 11:55:00
5:15 AM,55.4,55.4,100,30.06,10.0,NNW,5.8,-,N/A,,Unknown,340,2013-08-07 12:15:00
5:35 AM,55.4,55.4,100,30.06,10.0,North,5.8,-,N/A,,Unknown,360,2013-08-07 12:35:00
5:55 AM,55.4,55.4,100,30.06,10.0,North,4.6,-,N/A,,Unknown,350,2013-08-07 12:55:00
6:15 AM,55.4,55.4,100,30.06,9.0,NNW,4.6,-,N/A,,Unknown,330,2013-08-07 13:15:00
6:35 AM,55.4,55.4,100,30.06,2.0,NNW,4.6,-,N/A,,Mist,340,2013-08-07 13:35:00
6:55 AM,55.4,55.4,100,30.07,3.0,North,3.5,-,N/A,,Mist,10,2013-08-07 13:55:00
7:15 AM,55.4,55.4,100,30.07,2.5,Calm,Calm,-,N/A,,Mist,0,2013-08-07 14:15:00
7:35 AM,55.4,55.4,100,30.07,1.0,Calm,Calm,-,N/A,Rain,Light Rain,0,2013-08-07 14:35:00
7:55 AM,55.4,55.4,100,30.08,10.0,NNE,3.5,-,N/A,,Unknown,20,2013-08-07 14:55:00
8:15 AM,57.2,57.2,100,30.08,4.0,NNE,3.5,-,N/A,,Mist,20,2013-08-07 15:15:00
8:35 AM,57.2,57.2,100,30.09,10.0,Calm,Calm,-,N/A,,Overcast,0,2013-08-07 15:35:00
8:55 AM,59.0,57.2,94,30.09,10.0,SW,8.1,-,N/A,,Overcast,230,2013-08-07 15:55:00
9:15 AM,59.0,55.4,88,30.09,10.0,West,4.6,-,N/A,,Overcast,270,2013-08-07 16:15:00
9:35 AM,60.8,55.4,82,30.10,10.0,NW,4.6,-,N/A,,Overcast,320,2013-08-07 16:35:00
9:55 AM,60.8,55.4,82,30.11,10.0,WSW,6.9,-,N/A,,Overcast,250,2013-08-07 16:55:00
10:15 AM,62.6,55.4,77,30.11,10.0,West,3.5,-,N/A,,Overcast,270,2013-08-07 17:15:00
10:35 AM,62.6,55.4,77,30.11,10.0,SW,9.2,-,N/A,,Overcast,220,2013-08-07 17:35:00
10:55 AM,64.4,55.4,73,30.11,10.0,SW,6.9,-,N/A,,Overcast,230,2013-08-07 17:55:00
11:15 AM,64.4,55.4,73,30.11,10.0,West,8.1,-,N/A,,Overcast,260,2013-08-07 18:15:00
11:35 AM,66.2,55.4,68,30.11,10.0,SW,9.2,-,N/A,,Mostly Cloudy,230,2013-08-07 18:35:00
11:55 AM,66.2,55.4,68,30.11,10.0,WSW,11.5,-,N/A,,Overcast,250,2013-08-07 18:55:00
12:15 PM,68.0,55.4,64,30.11,10.0,SW,10.4,-,N/A,,Scattered Clouds,230,2013-08-07 19:15:00
12:35 PM,66.2,55.4,68,30.10,10.0,SW,4.6,-,N/A,,Mostly Cloudy,220,2013-08-07 19:35:00
12:55 PM,68.0,55.4,64,30.10,10.0,WSW,9.2,-,N/A,,Mostly Cloudy,250,2013-08-07 19:55:00
1:15 PM,68.0,55.4,64,30.10,10.0,SW,6.9,-,N/A,,Mostly Cloudy,220,2013-08-07 20:15:00
1:35 PM,68.0,55.4,64,30.10,10.0,WSW,4.6,-,N/A,,Overcast,250,2013-08-07 20:35:00
1:55 PM,69.8,55.4,60,30.09,10.0,WSW,8.1,-,N/A,,Mostly Cloudy,240,2013-08-07 20:55:00
2:15 PM,71.6,55.4,57,30.09,-9999.0,SW,9.2,-,N/A,,Mostly Cloudy,230,2013-08-07 21:15:00
2:35 PM,71.6,55.4,57,30.09,-9999.0,SW,11.5,-,N/A,,Mostly Cloudy,220,2013-08-07 21:35:00
2:55 PM,71.6,55.4,57,30.08,10.0,WSW,9.2,17.3,N/A,,Scattered Clouds,240,2013-08-07 21:55:00
3:15 PM,71.6,55.4,57,30.08,-9999.0,WSW,16.1,19.6,N/A,,Clear,240,2013-08-07 22:15:00
3:35 PM,69.8,55.4,60,30.08,10.0,WSW,13.8,20.7,N/A,,Clear,250,2013-08-07 22:35:00
3:55 PM,68.0,55.4,64,30.07,10.0,WNW,9.2,16.1,N/A,,Scattered Clouds,290,2013-08-07 22:55:00
4:15 PM,68.0,55.4,64,30.07,10.0,SW,10.4,-,N/A,,Scattered Clouds,230,2013-08-07 23:15:00
4:35 PM,68.0,55.4,64,30.07,10.0,West,11.5,17.3,N/A,,Clear,260,2013-08-07 23:35:00
4:55 PM,68.0,55.4,64,30.07,10.0,SW,12.7,16.1,N/A,,Clear,230,2013-08-07 23:55:00
5:15 PM,66.2,55.4,68,30.07,10.0,SW,13.8,-,N/A,,Scattered Clouds,230,2013-08-08 00:15:00
5:35 PM,66.2,57.2,73,30.06,10.0,SW,11.5,19.6,N/A,,Scattered Clouds,230,2013-08-08 00:35:00
5:55 PM,66.2,57.2,73,30.06,10.0,WSW,12.7,20.7,N/A,,Scattered Clouds,240,2013-08-08 00:55:00
6:15 PM,66.2,57.2,73,30.06,10.0,SW,11.5,-,N/A,,Partly Cloudy,230,2013-08-08 01:15:00
6:35 PM,64.4,55.4,73,30.06,10.0,WSW,11.5,-,N/A,,Clear,250,2013-08-08 01:35:00
6:55 PM,64.4,55.4,73,30.05,10.0,WSW,10.4,-,N/A,,Clear,250,2013-08-08 01:55:00
7:15 PM,62.6,57.2,82,30.05,10.0,WSW,11.5,-,N/A,,Clear,240,2013-08-08 02:15:00
7:35 PM,62.6,57.2,82,30.05,10.0,WSW,9.2,-,N/A,,Clear,250,2013-08-08 02:35:00
7:55 PM,62.6,57.2,82,30.05,10.0,SW,9.2,-,N/A,,Clear,230,2013-08-08 02:55:00
8:15 PM,62.6,57.2,82,30.05,10.0,SW,8.1,-,N/A,,Mostly Cloudy,230,2013-08-08 03:15:00
8:35 PM,62.6,57.2,82,30.05,10.0,SW,9.2,-,N/A,,Overcast,230,2013-08-08 03:35:00
8:55 PM,62.6,57.2,82,30.05,10.0,WSW,9.2,-,N/A,,Overcast,240,2013-08-08 03:55:00
9:15 PM,62.6,57.2,82,30.06,10.0,SW,9.2,-,N/A,,Overcast,230,2013-08-08 04:15:00
9:35 PM,60.8,57.2,88,30.06,10.0,WSW,10.4,-,N/A,,Mostly Cloudy,240,2013-08-08 04:35:00
9:55 PM,60.8,59.0,94,30.06,10.0,WSW,9.2,-,N/A,,Mostly Cloudy,240,2013-08-08 04:55:00
10:15 PM,60.8,59.0,94,30.06,10.0,WSW,6.9,-,N/A,,Mostly Cloudy,240,2013-08-08 05:15:00
10:35 PM,59.0,59.0,100,30.06,10.0,West,5.8,-,N/A,,Overcast,260,2013-08-08 05:35:00
10:55 PM,59.0,57.2,94,30.05,10.0,WSW,3.5,-,N/A,,Overcast,240,2013-08-08 05:55:00
11:15 PM,59.0,57.2,94,30.05,10.0,Calm,Calm,-,N/A,,Overcast,0,2013-08-08 06:15:00
11:35 PM,59.0,57.2,94,30.05,10.0,NW,6.9,-,N/A,,Overcast,320,2013-08-08 06:35:00
11:55 PM,59.0,57.2,94,30.05,10.0,West,3.5,-,N/A,,Overcast,270,2013-08-08 06:55:00